Weather History for College Park, MD

Change the Weather History Date:

Saturday, December 29, 2012

  Actual Average Record
Temperature  
Mean Temperature 38 °F -  
Max Temperature 43 °F 44 °F 71 °F (1984)
Min Temperature 34 °F 28 °F 12 °F (1963)
Degree Days  
Heating Degree Days 26    
Moisture  
Dew Point 35 °F    
Average Humidity 85    
Maximum Humidity 100    
Minimum Humidity 65    
Precipitation  
Precipitation 0.00 in - - ()
Sea Level Pressure  
Sea Level Pressure 29.77 in    
Wind  
Wind Speed 2 mph (NW)    
Max Wind Speed 16 mph    
Max Gust Speed 29 mph    
Visibility 9 miles    
Events      
Averages and records for this station are not official NWS values.
T = Trace of Precipitation, MM = Missing Value Source: NWS Daily Summary

Daily Weather History Graph

Daily Weather History Graph

Search for Another Location

Airport:

Trip Planner

Search our weather history database for the weather conditions in past years. The results will help you decide how hot, cold, wet, or windy it might be!

Date:

Astronomy

Dec. 29, 2012 Rise Set
Actual Time 7:26 AM EST 4:54 PM EST
Civil Twilight 6:56 AM EST 5:24 PM EST
Nautical Twilight 6:22 AM EST 5:57 PM EST
Astronomical Twilight 5:50 AM EST 6:29 PM EST
Moon 6:24 PM EST (12/29) 7:59 AM EST (12/29)
Length of Visible Light 10h 27m
Length of Day
9h 27m
Full, 98% of the Moon is Illuminated
Dec 29
Full
Jan 4
Last Quarter
Jan 11
New
Jan 18
First Quarter
Jan 26
Full

Hourly Weather History & Observations

Time (EST) Temp. Windchill Dew Point Humidity Pressure Visibility Wind Dir Wind Speed Gust Speed Precip Events Conditions
12:40 AM 36.1 °F - 33.3 °F 89% 30.04 in 10.0 mi Calm Calm - N/A   Clear
1:00 AM 36.1 °F - 32.0 °F 85% 30.03 in 10.0 mi Calm Calm - N/A   Clear
1:20 AM 36.1 °F - 32.0 °F 85% 30.02 in 10.0 mi Calm Calm - N/A   Clear
1:40 AM 35.8 °F - 32.2 °F 87% 30.02 in 10.0 mi Calm Calm - N/A   Scattered Clouds
2:05 AM 36.7 °F - 32.0 °F 83% 30.02 in 10.0 mi Calm Calm - N/A   Overcast
2:25 AM 36.1 °F - 32.9 °F 88% 30.01 in 10.0 mi Calm Calm - N/A   Overcast
2:45 AM 36.5 °F - 32.5 °F 86% 30.02 in 10.0 mi Calm Calm - N/A   Overcast
3:05 AM 36.5 °F - 32.9 °F 87% 30.01 in 10.0 mi Calm Calm - N/A   Overcast
3:30 AM 36.5 °F 33.9 °F 33.1 °F 87% 29.99 in 10.0 mi NNE 3.5 mph - N/A   Overcast
3:50 AM 36.5 °F - 33.3 °F 88% 29.97 in 10.0 mi Calm Calm - N/A   Overcast
4:10 AM 36.9 °F - 32.9 °F 86% 29.95 in 10.0 mi Calm Calm - N/A   Overcast
4:30 AM 37.2 °F 34.7 °F 33.1 °F 85% 29.94 in 10.0 mi East 3.5 mph - N/A   Overcast
4:55 AM 37.6 °F - 33.1 °F 84% 29.92 in 10.0 mi Calm Calm - N/A   Overcast
5:15 AM 37.8 °F 35.3 °F 33.4 °F 84% 29.90 in 10.0 mi ENE 3.5 mph - N/A   Overcast
5:55 AM 38.3 °F 34.8 °F 34.2 °F 85% 29.87 in 10.0 mi East 4.6 mph - N/A   Mostly Cloudy
7:00 AM 38.7 °F 36.3 °F 35.2 °F 87% 29.83 in 10.0 mi ENE 3.5 mph - N/A   Overcast
7:20 AM 39.0 °F - 36.7 °F 91% 29.81 in 10.0 mi Calm Calm - N/A   Overcast
7:40 AM 39.4 °F - 37.6 °F 93% 29.81 in 10.0 mi Calm Calm - N/A   Overcast
8:05 AM 39.7 °F 36.5 °F 37.9 °F 93% 29.79 in 10.0 mi East 4.6 mph - N/A   Overcast
8:20 AM 40.1 °F 38.0 °F 37.4 °F 90% 29.78 in 10.0 mi ESE 3.5 mph - N/A   Overcast
8:45 AM 40.5 °F 37.3 °F 36.0 °F 84% 29.78 in 10.0 mi ESE 4.6 mph - N/A   Overcast
9:10 AM 40.6 °F - 36.0 °F 83% 29.78 in 10.0 mi Calm Calm - N/A   Overcast
9:25 AM 40.5 °F - 36.3 °F 85% 29.78 in 10.0 mi Calm Calm - N/A   Overcast
9:50 AM 39.9 °F - 36.3 °F 87% 29.80 in 5.0 mi Calm Calm - N/A   Overcast
10:10 AM 37.8 °F 35.3 °F 36.5 °F 95% 29.78 in 3.0 mi SE 3.5 mph - N/A   Overcast
10:35 AM 35.8 °F - 35.8 °F 100% 29.77 in 2.5 mi Calm Calm - N/A   Overcast
10:55 AM 35.2 °F - 35.2 °F 100% 29.75 in 1.8 mi Calm Calm - N/A   Overcast
12:00 PM 34.7 °F - 34.7 °F 100% 29.69 in 1.2 mi Calm Calm - N/A   Overcast
12:20 PM 34.9 °F - 34.9 °F 100% 29.67 in 1.5 mi Calm Calm - N/A   Overcast
12:40 PM 35.6 °F - 35.6 °F 100% 29.65 in 2.5 mi Calm Calm - N/A   Overcast
1:05 PM 35.6 °F - 35.6 °F 100% 29.63 in 4.0 mi Calm Calm - N/A   Overcast
1:25 PM 36.5 °F - 36.5 °F 100% 29.62 in 4.0 mi Calm Calm - N/A   Overcast
1:45 PM 36.7 °F - 36.7 °F 100% 29.62 in 5.0 mi Calm Calm - N/A   Overcast
2:05 PM 37.6 °F 35.1 °F 37.6 °F 100% 29.60 in 5.0 mi North 3.5 mph - N/A   Overcast
2:30 PM 38.7 °F - 38.3 °F 99% 29.59 in 5.0 mi Calm Calm - N/A   Overcast
2:50 PM 39.4 °F - 38.8 °F 98% 29.58 in 7.0 mi Calm Calm - N/A   Overcast
3:10 PM 40.6 °F - 39.4 °F 95% 29.58 in 7.0 mi Calm Calm - N/A   Overcast
3:30 PM 41.9 °F 36.9 °F 38.5 °F 88% 29.58 in 10.0 mi West 8.1 mph - N/A   Mostly Cloudy
3:55 PM 41.0 °F 36.4 °F 37.6 °F 88% 29.58 in 10.0 mi WSW 6.9 mph - N/A   Clear
4:15 PM 40.5 °F 38.4 °F 37.6 °F 89% 29.59 in 10.0 mi WSW 3.5 mph - N/A   Clear
4:35 PM 39.7 °F - 37.6 °F 92% 29.59 in 10.0 mi Calm Calm - N/A   Clear
4:55 PM 39.6 °F 37.4 °F 37.4 °F 92% 29.59 in 10.0 mi West 3.5 mph - N/A   Clear
5:20 PM 39.6 °F 37.4 °F 37.2 °F 91% 29.60 in 10.0 mi West 3.5 mph - N/A   Scattered Clouds
5:40 PM 39.6 °F - 37.4 °F 92% 29.61 in 10.0 mi Calm Calm - N/A   Mostly Cloudy
6:00 PM 39.2 °F 37.0 °F 37.2 °F 93% 29.61 in 10.0 mi WNW 3.5 mph - N/A   Scattered Clouds
6:20 PM 39.7 °F - 37.0 °F 90% 29.63 in 10.0 mi Calm Calm - N/A   Mostly Cloudy
6:45 PM 41.2 °F 35.0 °F 35.6 °F 81% 29.64 in 10.0 mi WNW 10.4 mph - N/A   Overcast
7:05 PM 43.0 °F 36.0 °F 33.8 °F 70% 29.65 in 10.0 mi WNW 13.8 mph 21.9 mph N/A   Overcast
7:25 PM 43.2 °F 36.2 °F 32.2 °F 65% 29.66 in 10.0 mi NW 13.8 mph 28.8 mph N/A   Overcast
7:45 PM 42.8 °F 36.6 °F 32.4 °F 67% 29.68 in 10.0 mi NW 11.5 mph 24.2 mph N/A   Overcast
8:10 PM 42.4 °F 35.7 °F 31.5 °F 65% 29.69 in 10.0 mi WNW 12.7 mph 23.0 mph N/A   Overcast
8:30 PM 41.9 °F 35.9 °F 31.1 °F 66% 29.71 in 10.0 mi NW 10.4 mph 20.7 mph N/A   Overcast
8:50 PM 41.7 °F 33.7 °F 31.1 °F 66% 29.73 in 10.0 mi WNW 16.1 mph 25.3 mph N/A   Overcast
9:10 PM 41.4 °F 34.0 °F 30.9 °F 66% 29.74 in 10.0 mi WNW 13.8 mph 23.0 mph N/A   Overcast
9:35 PM 41.0 °F 33.9 °F 30.0 °F 65% 29.76 in 10.0 mi NW 12.7 mph 21.9 mph N/A   Overcast
9:55 PM 40.6 °F 33.0 °F 30.0 °F 66% 29.77 in 10.0 mi NW 13.8 mph 20.7 mph N/A   Overcast
10:15 PM 40.5 °F 32.5 °F 30.2 °F 67% 29.78 in 10.0 mi WNW 15.0 mph 23.0 mph N/A   Overcast
11:00 PM 40.5 °F 34.1 °F 30.2 °F 67% 29.80 in 10.0 mi WNW 10.4 mph 19.6 mph N/A   Overcast
11:15 PM 40.6 °F 34.8 °F 30.4 °F 67% 29.80 in 10.0 mi WNW 9.2 mph 18.4 mph N/A   Overcast
11:40 PM 41.0 °F 35.2 °F 30.2 °F 65% 29.81 in 10.0 mi WNW 9.2 mph 19.6 mph N/A   Overcast